Tracking 18980 objects as of 17-Feb-2018
HD Live streaming from Space Station
objects crossing your sky now

FENGYUN 1C DEB

Track FENGYUN 1C DEB now!
10-day predictions


NORAD ID: 36661
Int'l Code: 1999-025DYF
Perigee: 819.2 km
Apogee: 852.1 km
Inclination: 99.0 °
Period: 101.5 minutes
Semi major axis: 7206 km
RCS: 0.0121 m2 (small)
Launch date: May 10, 1999
Source: People's Republic of China (PRC)
Launch site: Taiyaun Space Center, China (TSC)

Note: This is SATELLITE DEBRIS
aabbcc
Your satellite tracking list
Your tracking list is empty




NASA's NSSDC Master Catalog

Two Line Element Set (TLE):
1 36661U 99025DYF 18047.89382123 +.00000854 +00000-0 +42964-3 0  9998
2 36661 098.9972 079.6040 0022795 233.8895 250.0663 14.19064540475559
Source of the keplerian elements: AFSPC